Stündliche Wetter Catu

Heute, 21 Januar, Donnerstag

Zeit Temperatur Niederschläge Wind Luftdruck Luftfeuchtigkeit
00:00 +21°C° 0 mm 0 m/S 751 mmHg 96%
01:00 +21°C° 0 mm 0 m/S 751 mmHg 96%
02:00 +21°C° 0 mm 0 m/S 751 mmHg 95%
03:00 +21°C° 0 mm 0 m/S 751 mmHg 95%
04:00 +21°C° 0 mm 0 m/S 751 mmHg 94%
05:00 +21°C° 0 mm 0 m/S 752 mmHg 92%
06:00 +22°C° 0 mm 0 m/S 752 mmHg 91%
07:00 +26°C° 0.2 mm 1 m/S 752 mmHg 82%
08:00 +28°C° 0.2 mm 2 m/S 753 mmHg 73%
09:00 +29°C° 0.2 mm 3 m/S 753 mmHg 64%
10:00 +30°C° 0.3 mm 3 m/S 753 mmHg 60%
11:00 +31°C° 0.3 mm 3 m/S 753 mmHg 56%
12:00 +33°C° 0.3 mm 3 m/S 752 mmHg 53%
13:00 +33°C° 0 mm 4 m/S 752 mmHg 50%
14:00 +33°C° 0 mm 4 m/S 752 mmHg 48%
15:00 +34°C° 0 mm 4 m/S 751 mmHg 46%
16:00 +32°C° 0 mm 4 m/S 751 mmHg 54%
17:00 +29°C° 0 mm 3 m/S 752 mmHg 61%
18:00 +27°C° 0 mm 2 m/S 752 mmHg 69%
19:00 +25°C° 0 mm 2 m/S 752 mmHg 77%
20:00 +24°C° 0 mm 1 m/S 752 mmHg 84%
21:00 +23°C° 0 mm 1 m/S 753 mmHg 92%
22:00 +23°C° 0 mm 1 m/S 753 mmHg 93%
23:00 +23°C° 0 mm 1 m/S 752 mmHg 94%

Morgen, 22 Januar, Freitag

Zeit Temperatur Niederschläge Wind Luftdruck Luftfeuchtigkeit
00:00 +21°C° 0 mm 0 m/S 752 mmHg 95%
01:00 +21°C° 0.1 mm 0 m/S 752 mmHg 95%
02:00 +21°C° 0.1 mm 0 m/S 752 mmHg 96%
03:00 +21°C° 0.1 mm 0 m/S 752 mmHg 96%
04:00 +21°C° 0.1 mm 0 m/S 752 mmHg 95%
05:00 +21°C° 0.1 mm 0 m/S 752 mmHg 94%
06:00 +22°C° 0.1 mm 0 m/S 753 mmHg 94%
07:00 +25°C° 0.2 mm 1 m/S 753 mmHg 86%
08:00 +27°C° 0.2 mm 1 m/S 754 mmHg 79%
09:00 +28°C° 0.2 mm 2 m/S 754 mmHg 72%
10:00 +30°C° 0.1 mm 2 m/S 754 mmHg 63%
11:00 +31°C° 0.1 mm 3 m/S 753 mmHg 55%
12:00 +34°C° 0.1 mm 3 m/S 753 mmHg 46%
13:00 +34°C° 0 mm 3 m/S 753 mmHg 46%
14:00 +34°C° 0 mm 4 m/S 752 mmHg 47%
15:00 +33°C° 0 mm 4 m/S 752 mmHg 47%
16:00 +30°C° 0 mm 4 m/S 752 mmHg 55%
17:00 +28°C° 0 mm 3 m/S 752 mmHg 62%
18:00 +27°C° 0 mm 2 m/S 752 mmHg 69%
19:00 +25°C° 0 mm 2 m/S 753 mmHg 77%
20:00 +24°C° 0 mm 1 m/S 753 mmHg 84%
21:00 +23°C° 0 mm 1 m/S 753 mmHg 92%
22:00 +22°C° 0 mm 1 m/S 753 mmHg 93%
23:00 +20°C° 0 mm 0 m/S 753 mmHg 95%

übermorgen, 23 Januar, Samstag

Zeit Temperatur Niederschläge Wind Luftdruck Luftfeuchtigkeit
00:00 +20°C° 0 mm 0 m/S 753 mmHg 96%
01:00 +20°C° 0.1 mm 0 m/S 752 mmHg 96%
02:00 +21°C° 0.1 mm 0 m/S 752 mmHg 96%
03:00 +21°C° 0.1 mm 0 m/S 752 mmHg 96%
04:00 +21°C° 0 mm 0 m/S 752 mmHg 96%
05:00 +21°C° 0 mm 0 m/S 752 mmHg 95%
06:00 +21°C° 0 mm 0 m/S 752 mmHg 95%
07:00 +25°C° 0.3 mm 1 m/S 753 mmHg 88%
08:00 +27°C° 0.3 mm 1 m/S 753 mmHg 81%
09:00 +28°C° 0.3 mm 2 m/S 753 mmHg 74%
10:00 +30°C° 0.2 mm 3 m/S 753 mmHg 64%
11:00 +33°C° 0.2 mm 3 m/S 753 mmHg 55%
12:00 +35°C° 0.2 mm 3 m/S 753 mmHg 46%
13:00 +34°C° 0 mm 4 m/S 752 mmHg 48%
14:00 +34°C° 0 mm 4 m/S 752 mmHg 50%
15:00 +33°C° 0 mm 5 m/S 751 mmHg 52%
16:00 +30°C° 0 mm 4 m/S 751 mmHg 60%
17:00 +29°C° 0 mm 3 m/S 751 mmHg 69%
18:00 +27°C° 0 mm 3 m/S 751 mmHg 77%
19:00 +26°C° 0 mm 2 m/S 752 mmHg 84%
20:00 +25°C° 0 mm 2 m/S 752 mmHg 90%
21:00 +24°C° 0 mm 1 m/S 753 mmHg 96%
22:00 +23°C° 0.1 mm 1 m/S 752 mmHg 97%
23:00 +23°C° 0.1 mm 1 m/S 752 mmHg 97%

24 Januar, Sonntag

Zeit Temperatur Niederschläge Wind Luftdruck Luftfeuchtigkeit
00:00 +23°C° 0.1 mm 1 m/S 752 mmHg 97%
01:00 +23°C° 0 mm 1 m/S 751 mmHg 97%
02:00 +23°C° 0 mm 1 m/S 751 mmHg 97%
03:00 +23°C° 0 mm 1 m/S 750 mmHg 97%
04:00 +23°C° 0 mm 1 m/S 751 mmHg 96%
05:00 +23°C° 0 mm 1 m/S 751 mmHg 95%
06:00 +23°C° 0 mm 1 m/S 751 mmHg 94%
07:00 +26°C° 0 mm 1 m/S 752 mmHg 80%
08:00 +28°C° 0 mm 2 m/S 752 mmHg 67%
09:00 +30°C° 0 mm 3 m/S 752 mmHg 54%
10:00 +33°C° 0 mm 3 m/S 752 mmHg 49%
11:00 +34°C° 0 mm 3 m/S 752 mmHg 44%
12:00 +35°C° 0 mm 4 m/S 751 mmHg 40%
13:00 +35°C° 0 mm 4 m/S 751 mmHg 43%
14:00 +34°C° 0 mm 4 m/S 750 mmHg 46%
15:00 +34°C° 0 mm 4 m/S 750 mmHg 49%
16:00 +32°C° 0.1 mm 4 m/S 750 mmHg 59%
17:00 +29°C° 0.1 mm 3 m/S 750 mmHg 69%
18:00 +27°C° 0.1 mm 2 m/S 750 mmHg 78%
19:00 +26°C° 0 mm 2 m/S 750 mmHg 83%
20:00 +24°C° 0 mm 2 m/S 751 mmHg 88%
21:00 +23°C° 0 mm 1 m/S 751 mmHg 93%
22:00 +23°C° 0 mm 1 m/S 751 mmHg 95%
23:00 +23°C° 0 mm 1 m/S 751 mmHg 96%

25 Januar, Montag

Zeit Temperatur Niederschläge Wind Luftdruck Luftfeuchtigkeit
00:00 +21°C° 0 mm 0 m/S 751 mmHg 97%
01:00 +21°C° 0 mm 0 m/S 750 mmHg 97%
02:00 +20°C° 0 mm 0 m/S 750 mmHg 97%
03:00 +20°C° 0 mm 0 m/S 750 mmHg 97%
04:00 +21°C° 0 mm 0 m/S 750 mmHg 96%
05:00 +21°C° 0 mm 0 m/S 750 mmHg 95%
06:00 +21°C° 0 mm 0 m/S 751 mmHg 94%
07:00 +26°C° 0.1 mm 1 m/S 751 mmHg 83%
08:00 +28°C° 0.1 mm 1 m/S 751 mmHg 71%
09:00 +31°C° 0.1 mm 2 m/S 752 mmHg 60%
10:00 +31°C° 0.2 mm 2 m/S 751 mmHg 57%
11:00 +33°C° 0.2 mm 3 m/S 751 mmHg 54%
12:00 +34°C° 0.2 mm 3 m/S 751 mmHg 50%
13:00 +34°C° 0.1 mm 3 m/S 750 mmHg 49%
14:00 +34°C° 0.1 mm 4 m/S 750 mmHg 48%
15:00 +34°C° 0.1 mm 4 m/S 749 mmHg 47%
16:00 +32°C° 0 mm 4 m/S 750 mmHg 54%
17:00 +29°C° 0 mm 3 m/S 750 mmHg 62%
18:00 +27°C° 0 mm 3 m/S 750 mmHg 69%
19:00 +26°C° 0 mm 2 m/S 750 mmHg 76%
20:00 +25°C° 0 mm 1 m/S 751 mmHg 84%
21:00 +23°C° 0 mm 1 m/S 751 mmHg 91%
22:00 +23°C° 0 mm 1 m/S 751 mmHg 93%
23:00 +21°C° 0 mm 0 m/S 751 mmHg 94%

26 Januar, Dienstag

Zeit Temperatur Niederschläge Wind Luftdruck Luftfeuchtigkeit
00:00 +21°C° 0 mm 0 m/S 751 mmHg 96%
01:00 +20°C° 0 mm 0 m/S 750 mmHg 96%
02:00 +20°C° 0 mm 0 m/S 750 mmHg 96%
03:00 +20°C° 0 mm 0 m/S 750 mmHg 96%
04:00 +21°C° 0 mm 0 m/S 750 mmHg 95%
05:00 +21°C° 0 mm 0 m/S 751 mmHg 94%
06:00 +21°C° 0 mm 0 m/S 751 mmHg 93%
07:00 +25°C° 0.1 mm 1 m/S 751 mmHg 82%
08:00 +28°C° 0.1 mm 2 m/S 752 mmHg 71%
09:00 +30°C° 0.1 mm 3 m/S 752 mmHg 60%
10:00 +33°C° 0.1 mm 3 m/S 752 mmHg 53%
11:00 +34°C° 0.1 mm 3 m/S 751 mmHg 46%
12:00 +35°C° 0.1 mm 3 m/S 751 mmHg 39%
13:00 +35°C° 0 mm 4 m/S 750 mmHg 39%
14:00 +35°C° 0 mm 4 m/S 750 mmHg 39%
15:00 +34°C° 0 mm 5 m/S 749 mmHg 40%
16:00 +32°C° 0 mm 4 m/S 750 mmHg 50%
17:00 +29°C° 0 mm 3 m/S 750 mmHg 60%
18:00 +27°C° 0 mm 3 m/S 750 mmHg 70%
19:00 +26°C° 0 mm 2 m/S 751 mmHg 78%
20:00 +24°C° 0 mm 2 m/S 751 mmHg 85%
21:00 +23°C° 0 mm 1 m/S 751 mmHg 93%
22:00 +23°C° 0 mm 1 m/S 751 mmHg 94%
23:00 +20°C° 0 mm 0 m/S 751 mmHg 95%
Mehr zeigen

Wir brauchen deine Erlaubnis

Meteoprog und unser Service Anbieter werden persönliche Daten aufbewahren, so wie Cookies, Geräte Bezeichnung oder ähnliche Technologien von deinem Gerät und Prozess, so wie Persönliche Daten Inhalte und Werbungen, genauso wie social Media und den Verkehr zu analysieren.

  • Aufbewahrung und/oder Zugang zu deiner Geräte Informationen.

    Cookies, Geräte Bezeichnung oder andere Informationen, können aufbewahrt oder Zugang zu deinem Gerät erhalten, für den Grund, der oben angegeben wird.

  • Personalisierte Werbung und Inhalte, Messungen, Einblick in das Publikum und Produkt Entwicklung.

    Werbungen und Inhalte können personalisiert werden, basierend auf ein Profil. Mehr Daten können besser personalisierte Werbungen und Inhalte hinzufügen. Werbung und Inhalte können gezeigt und gemessen werden. Einblicke über das Publikum, welche die Werbung gesehen haben und den Inhalt, können abgeleitet werden. So wie Daten können genutzt werden, um es zu verbessern oder die Benutzer Erfahrung zu verbessern das System und die Software.

Wenn du “Ich stimme zu” klickst, erlaubst du uns, die Cookies zu benutzen die Geräte Bezeichnung, den Web oder ähnliche Technologien zu benutzen. Deine Settings, können in deinem Gerät bei deinem Browser geändert werden.

Für den bestimmten Zweck, berechtigten Interessen beruhen darauf, mehr als auf den Inhalt. Du kannst mehr darüber in unseren Privaten und Cookie Politik lesen.